GW2490 Weather Reports


Display with metric or nautical units.
time (UTC)temp
F
wind
direction
speed
MPH
gust
MPH
rain 1hr
in
rain 24hr
in
rain mn
in
humidity
%
barometer
mb
20260502151957 52 315 8.0 14.0 0.00 0.00 0.01 89 1017.6
20260502151457 51 313 7.0 10.0 0.00 0.00 0.01 89 1017.6
20260502151034 0 0.0 0.0 0.00 0.00 0.00
20260502150957 51 318 6.0 11.0 0.00 0.00 0.01 90 1017.7
20260502150535 0 0.0 0.0 0.00 0.00 0.00
20260502150457 51 318 8.0 12.0 0.00 0.00 0.01 91 1017.8
20260502130527 0 0.0 0.0 0.00 0.00 0.00
20260502130457 51 340 6.0 9.0 0.00 0.00 0.00 92 1017.1
20260502123528 0 0.0 0.0 0.00 0.00 0.00
20260502123458 51 323 8.0 13.0 0.00 0.00 0.00 90 1016.8
20260502123028 0 0.0 0.0 0.00 0.00 0.00
20260502122957 51 318 7.0 13.0 0.00 0.00 0.00 90 1016.8
20260502122528 0 0.0 0.0 0.00 0.00 0.00
20260502122457 51 324 6.0 9.0 0.00 0.00 0.00 89 1016.9
20260502121957 51 313 6.0 8.0 0.00 0.00 0.00 89 1016.7
20260502121525 0 0.0 0.0 0.00 0.00 0.00
20260502121457 51 323 6.0 11.0 0.00 0.00 0.00 89 1016.6
20260502121026 0 0.0 0.0 0.00 0.00 0.00
20260502120957 51 318 7.0 11.0 0.00 0.00 0.00 89 1016.5
20260502120525 0 0.0 0.0 0.00 0.00 0.00
20260502120457 51 322 7.0 10.0 0.00 0.00 0.00 89 1016.5
20260502115523 0 0.0 0.0 0.00 0.00 0.00
20260502115458 51 318 9.0 13.0 0.00 0.00 0.00 89 1016.8
20260502114957 51 316 6.0 9.0 0.00 0.00 0.00 89 1016.8
20260502114457 51 320 4.0 7.0 0.00 0.00 0.00 89 1016.7
20260502114019 0 0.0 0.0 0.00 0.00 0.00
20260502113958 51 312 6.0 9.0 0.00 0.00 0.00 89 1016.9
20260502113517 0 0.0 0.0 0.00 0.00 0.00
20260502113458 52 315 6.0 9.0 0.00 0.00 0.00 89 1016.9
20260502113018 0 0.0 0.0 0.00 0.00 0.00
20260502112957 52 330 5.0 7.0 0.00 0.00 0.00 88 1016.8
20260502112517 0 0.0 0.0 0.00 0.00 0.00
20260502112457 52 318 6.0 9.0 0.00 0.00 0.00 88 1016.8
20260502112018 0 0.0 0.0 0.00 0.00 0.00
20260502111957 52 319 6.0 8.0 0.00 0.00 0.00 87 1016.8
20260502111518 0 0.0 0.0 0.00 0.00 0.00
20260502111457 52 319 6.0 12.0 0.00 0.00 0.00 87 1016.7
20260502111018 0 0.0 0.0 0.00 0.00 0.00
20260502110958 52 319 7.0 9.0 0.00 0.00 0.00 86 1016.7
20260502110518 0 0.0 0.0 0.00 0.00 0.00
20260502110457 52 329 6.0 11.0 0.00 0.00 0.00 86 1016.6
20260502105957 53 318 7.0 13.0 0.00 0.00 0.00 85 1016.5
20260502105457 53 319 9.0 11.0 0.00 0.00 0.00 84 1016.2
20260502104957 53 332 8.0 12.0 0.00 0.00 0.00 84 1016.2
20260502104530 0 0.0 0.0 0.00 0.00 0.00
20260502104457 53 327 7.0 10.0 0.00 0.00 0.00 83 1016.2
20260502104035 0 0.0 0.0 0.00 0.00 0.00
20260502103957 53 322 8.0 12.0 0.00 0.00 0.00 83 1016.2
20260502103458 53 323 8.0 10.0 0.00 0.00 0.00 83 1016.4
20260502102957 54 336 9.0 12.0 0.00 0.00 0.00 82 1016.2
20260502102518 0 0.0 0.0 0.00 0.00 0.00
20260502102458 54 328 9.0 13.0 0.00 0.00 0.00 81 1016.2
20260502101957 54 329 8.0 10.0 0.00 0.00 0.00 81 1016.4
20260502101535 0 0.0 0.0 0.00 0.00 0.00
20260502101457 54 330 8.0 11.0 0.00 0.00 0.00 81 1016.0
20260502101021 0 0.0 0.0 0.00 0.00 0.00
20260502100958 54 329 8.0 11.0 0.00 0.00 0.00 81 1016.2
20260502100531 0 0.0 0.0 0.00 0.00 0.00
20260502100457 54 330 7.0 10.0 0.00 0.00 0.00 80 1016.4
20260502091457 57 325 7.0 12.0 0.00 0.00 0.00 72 1016.5
20260502091013 0 0.0 0.0 0.00 0.00 0.00
20260502090958 57 319 6.0 10.0 0.00 0.00 0.00 72 1016.4
20260502090541 0 0.0 0.0 0.00 0.00 0.00
20260502090457 57 296 4.0 9.0 0.00 0.00 0.00 71 1016.5
20260502071457 60 327 5.0 8.0 0.00 0.00 0.00 63 1016.5
20260502070957 60 299 3.0 7.0 0.00 0.00 0.00 63 1016.5
20260502070518 0 0.0 0.0 0.00 0.00 0.00
20260502070457 60 326 5.0 7.0 0.00 0.00 0.00 63 1016.5
20260502070010 0 0.0 0.0 0.00 0.00 0.00
20260502065957 60 301 3.0 6.0 0.00 0.00 0.00 63 1016.5
20260502065530 0 0.0 0.0 0.00 0.00 0.00
20260502065457 60 299 4.0 8.0 0.00 0.00 0.00 63 1016.2
20260502064957 60 311 3.0 7.0 0.00 0.00 0.00 62 1016.2
20260502064507 0 0.0 0.0 0.00 0.00 0.00
20260502064457 60 313 7.0 11.0 0.00 0.00 0.00 62 1016.2
20260502063957 60 324 4.0 7.0 0.00 0.00 0.00 62 1016.2
20260502063516 0 0.0 0.0 0.00 0.00 0.00
20260502063457 60 309 4.0 8.0 0.00 0.00 0.00 61 1016.4
20260502063008 0 0.0 0.0 0.00 0.00 0.00
20260502062957 60 319 6.0 8.0 0.00 0.00 0.00 61 1016.4
20260502062457 60 315 3.0 6.0 0.00 0.00 0.00 62 1016.1
20260502061957 60 314 6.0 9.0 0.00 0.00 0.00 62 1016.1
20260502061508 0 0.0 0.0 0.00 0.00 0.00
20260502061457 60 317 5.0 8.0 0.00 0.00 0.00 62 1016.1
20260502061028 0 0.0 0.0 0.00 0.00 0.00
20260502060959 60 321 3.0 6.0 0.00 0.00 0.00 62 1016.0
20260502060507 0 0.0 0.0 0.00 0.00 0.00
20260502060457 60 308 5.0 9.0 0.00 0.00 0.00 62 1016.0
20260502060021 0 0.0 0.0 0.00 0.00 0.00
20260502055958 60 326 5.0 11.0 0.00 0.00 0.00 61 1015.9
20260502055516 0 0.0 0.0 0.00 0.00 0.00
20260502055457 60 318 6.0 10.0 0.00 0.00 0.00 61 1016.0
20260502054957 60 332 4.0 9.0 0.00 0.00 0.00 61 1015.9
20260502054457 60 335 6.0 12.0 0.00 0.00 0.00 61 1015.9
20260502054030 0 0.0 0.0 0.00 0.00 0.00
20260502053957 60 316 4.0 6.0 0.00 0.00 0.00 61 1015.9
20260502053457 60 333 6.0 8.0 0.00 0.00 0.00 61 1016.0
20260502052957 60 321 5.0 7.0 0.00 0.00 0.00 61 1015.9
20260502052457 60 321 4.0 6.0 0.00 0.00 0.00 61 1016.0
20260502051957 60 327 6.0 12.0 0.00 0.00 0.00 62 1016.0
20260502051500 60 322 4.0 7.0 0.00 0.00 0.00 62 1016.0
20260502051003 0 0.0 0.0 0.00 0.00 0.00
20260502050957 60 326 5.0 9.0 0.00 0.00 0.00 62 1016.1
20260502050457 60 335 5.0 9.0 0.00 0.00 0.00 62 1016.1
20260502050010 0 0.0 0.0 0.00 0.00 0.00
20260502045957 60 329 5.0 8.0 0.00 0.00 0.00 62 1016.1
20260502045526 0 0.0 0.0 0.00 0.00 0.00
20260502045457 60 322 4.0 6.0 0.00 0.00 0.00 62 1016.1
20260502045010 0 0.0 0.0 0.00 0.00 0.00
20260502044957 60 330 3.0 6.0 0.00 0.00 0.00 62 1016.2
20260502044457 60 326 5.0 7.0 0.00 0.00 0.00 62 1016.2
20260502043957 59 312 2.0 6.0 0.00 0.00 0.00 63 1016.1
20260502043500 59 322 5.0 8.0 0.00 0.00 0.00 62 1016.0
20260502042957 59 325 3.0 7.0 0.00 0.00 0.00 63 1015.8
20260502042520 0 0.0 0.0 0.00 0.00 0.00
20260502042457 59 333 4.0 6.0 0.00 0.00 0.00 63 1015.9
20260502042030 0 0.0 0.0 0.00 0.00 0.00
20260502041957 59 333 7.0 10.0 0.00 0.00 0.00 63 1015.8
20260502041500 0 0.0 0.0 0.00 0.00 0.00
20260502041457 59 329 5.0 9.0 0.00 0.00 0.00 64 1015.7
20260502040957 59 330 6.0 11.0 0.00 0.00 0.00 64 1015.7
20260502040457 59 328 8.0 10.0 0.00 0.00 0.00 64 1015.7
20260502040032 0 0.0 0.0 0.00 0.00 0.00
20260502035957 59 333 6.0 8.0 0.00 0.00 0.00 65 1015.6
20260502035457 59 322 6.0 11.0 0.00 0.00 0.00 65 1015.5
20260502034957 59 327 5.0 8.0 0.00 0.00 0.00 65 1015.4
20260502034458 0 0.0 0.0 0.00 0.00 0.00
20260502033957 59 318 6.0 9.0 0.00 0.00 0.00 65 1015.2
20260502033457 59 327 5.0 9.0 0.00 0.00 0.00 64 1015.3
20260502033008 0 0.0 0.0 0.00 0.00 0.00
20260502032957 59 319 3.0 5.0 0.00 0.00 0.00 64 1015.3
20260502032517 0 0.0 0.0 0.00 0.00 0.00
20260502032458 60 325 5.0 9.0 0.00 0.00 0.00 64 1015.3
20260502032010 0 0.0 0.0 0.00 0.00 0.00
20260502031957 60 320 6.0 9.0 0.00 0.00 0.00 63 1015.2
20260502031458 60 319 6.0 10.0 0.00 0.00 0.00 62 1015.1
20260502031456 0 0.0 0.0 0.00 0.00 0.00
20260502030957 61 317 5.0 9.0 0.00 0.00 0.00 62 1015.1
20260502030955 0 0.0 0.0 0.00 0.00 0.00
20260502030457 61 322 6.0 8.0 0.00 0.00 0.00 61 1015.1
20260502025957 61 311 5.0 10.0 0.00 0.00 0.00 61 1015.1
20260502025953 0 0.0 0.0 0.00 0.00 0.00
20260502025457 62 314 6.0 14.0 0.00 0.00 0.00 59 1015.0
20260502025453 0 0.0 0.0 0.00 0.00 0.00
20260502024957 62 318 4.0 8.0 0.00 0.00 0.00 58 1015.0
20260502024459 62 327 7.0 14.0 0.00 0.00 0.00 58 1014.6
20260502024451 0 0.0 0.0 0.00 0.00 0.00
20260502023957 61 308 6.0 9.0 0.00 0.00 0.00 59 1015.0
20260502023950 0 0.0 0.0 0.00 0.00 0.00
20260502023458 61 312 6.0 10.0 0.00 0.00 0.00 59 1015.0
20260502023450 0 0.0 0.0 0.00 0.00 0.00
20260502022957 61 316 6.0 9.0 0.00 0.00 0.00 60 1014.9
20260502022950 0 0.0 0.0 0.00 0.00 0.00
20260502022457 61 319 6.0 9.0 0.00 0.00 0.00 60 1015.0
20260502022451 0 0.0 0.0 0.00 0.00 0.00
20260502021957 61 321 6.0 9.0 0.00 0.00 0.00 61 1015.0
20260502021950 0 0.0 0.0 0.00 0.00 0.00
20260502021457 61 313 7.0 9.0 0.00 0.00 0.00 61 1015.0
20260502021451 0 0.0 0.0 0.00 0.00 0.00
20260502020958 62 317 5.0 8.0 0.00 0.00 0.00 61 1015.0
20260502020951 0 0.0 0.0 0.00 0.00 0.00
20260502020457 62 309 7.0 9.0 0.00 0.00 0.00 60 1015.0
20260502020451 0 0.0 0.0 0.00 0.00 0.00
20260502015957 62 311 7.0 10.0 0.00 0.00 0.00 59 1015.0
20260502015951 0 0.0 0.0 0.00 0.00 0.00
20260502015457 62 316 6.0 9.0 0.00 0.00 0.00 60 1015.1
20260502015448 0 0.0 0.0 0.00 0.00 0.00
20260502014957 63 315 5.0 9.0 0.00 0.00 0.00 60 1015.0
20260502014949 0 0.0 0.0 0.00 0.00 0.00
20260502014458 62 307 6.0 7.0 0.00 0.00 0.00 60 1015.0
20260502014448 0 0.0 0.0 0.00 0.00 0.00
20260502013957 62 321 6.0 8.0 0.00 0.00 0.00 60 1015.0
20260502013949 0 0.0 0.0 0.00 0.00 0.00
20260502013457 62 309 5.0 7.0 0.00 0.00 0.00 62 1015.0
20260502012957 62 311 5.0 10.0 0.00 0.00 0.00 63 1015.0
20260502012948 0 0.0 0.0 0.00 0.00 0.00
20260502012457 62 310 5.0 7.0 0.00 0.00 0.00 63 1015.1
20260502012449 0 0.0 0.0 0.00 0.00 0.00
20260502011957 62 302 6.0 8.0 0.00 0.00 0.00 63 1015.1
20260502011949 0 0.0 0.0 0.00 0.00 0.00
20260502011457 63 305 6.0 8.0 0.00 0.00 0.00 63 1015.3
20260502011449 0 0.0 0.0 0.00 0.00 0.00
20260502010957 63 305 6.0 9.0 0.00 0.00 0.00 61 1015.3
20260502010949 0 0.0 0.0 0.00 0.00 0.00
20260502010457 63 307 5.0 8.0 0.00 0.00 0.00 62 1015.3
20260502005957 63 312 3.0 5.0 0.00 0.00 0.00 62 1015.4
20260502005949 0 0.0 0.0 0.00 0.00 0.00
20260502005457 63 310 4.0 6.0 0.00 0.00 0.00 64 1015.4
20260502005446 0 0.0 0.0 0.00 0.00 0.00
20260502004957 62 301 5.0 7.0 0.00 0.00 0.00 64 1015.3
20260502004947 0 0.0 0.0 0.00 0.00 0.00
20260502004457 62 316 5.0 7.0 0.00 0.00 0.00 64 1015.3
20260502004446 0 0.0 0.0 0.00 0.00 0.00
20260502003957 63 319 5.0 8.0 0.00 0.00 0.00 64 1015.4
20260502003947 0 0.0 0.0 0.00 0.00 0.00
20260502003457 63 310 6.0 8.0 0.00 0.00 0.00 65 1015.4
20260502003446 0 0.0 0.0 0.00 0.00 0.00
20260502002958 63 316 5.0 8.0 0.00 0.00 0.00 63 1015.4
20260502002948 0 0.0 0.0 0.00 0.00 0.00
20260502002457 63 304 4.0 7.0 0.00 0.00 0.00 63 1015.5
20260502002448 0 0.0 0.0 0.00 0.00 0.00
20260502001957 62 310 4.0 6.0 0.00 0.00 0.00 65 1015.5
20260502001947 0 0.0 0.0 0.00 0.00 0.00
20260502001457 63 311 6.0 8.0 0.00 0.00 0.00 66 1015.5
20260502001449 0 0.0 0.0 0.00 0.00 0.00
20260502000958 63 310 4.0 6.0 0.00 0.00 0.00 65 1015.6
20260502000948 0 0.0 0.0 0.00 0.00 0.00
20260502000457 63 316 5.0 6.0 0.00 0.00 0.00 66 1015.6
20260502000447 0 0.0 0.0 0.00 0.00 0.00
20260501235957 63 306 4.0 7.0 0.00 0.00 0.00 66 1015.6
20260501235947 0 0.0 0.0 0.00 0.00 0.00
20260501235457 64 315 4.0 7.0 0.00 0.00 0.00 66 1015.6
20260501235447 0 0.0 0.0 0.00 0.00 0.00
20260501234957 64 315 5.0 7.0 0.00 0.00 0.00 64 1015.5
20260501234947 0 0.0 0.0 0.00 0.00 0.00
20260501234457 65 307 5.0 8.0 0.00 0.00 0.00 63 1015.6
20260501234445 0 0.0 0.0 0.00 0.00 0.00
20260501233958 65 308 5.0 7.0 0.00 0.00 0.00 63 1015.6
20260501233945 0 0.0 0.0 0.00 0.00 0.00
20260501233457 65 306 6.0 8.0 0.00 0.00 0.00 63 1015.6
20260501233446 0 0.0 0.0 0.00 0.00 0.00
20260501232957 65 308 4.0 8.0 0.00 0.00 0.00 64 1015.6
20260501232457 65 299 5.0 7.0 0.00 0.00 0.00 64 1015.7
20260501232445 0 0.0 0.0 0.00 0.00 0.00
20260501231958 65 314 4.0 6.0 0.00 0.00 0.00 64 1015.7
20260501231457 65 295 3.0 7.0 0.00 0.00 0.00 64 1015.8
20260501231446 0 0.0 0.0 0.00 0.00 0.00
20260501230957 66 301 5.0 8.0 0.00 0.00 0.00 64 1015.9
20260501230457 66 307 4.0 6.0 0.00 0.00 0.00 64 1016.0
20260501230446 0 0.0 0.0 0.00 0.00 0.00
20260501225959 66 311 4.0 7.0 0.00 0.00 0.00 63 1016.0
20260501225947 0 0.0 0.0 0.00 0.00 0.00
20260501225457 65 304 4.0 8.0 0.00 0.00 0.00 64 1016.1
20260501225446 0 0.0 0.0 0.00 0.00 0.00
20260501224957 65 318 4.0 7.0 0.00 0.00 0.00 64 1016.1
20260501224946 0 0.0 0.0 0.00 0.00 0.00
20260501224457 65 306 5.0 8.0 0.00 0.00 0.00 64 1016.2
20260501223958 65 309 5.0 7.0 0.00 0.00 0.00 65 1016.2
20260501223946 0 0.0 0.0 0.00 0.00 0.00
20260501223459 65 308 4.0 9.0 0.00 0.00 0.00 65 1016.2
20260501223446 0 0.0 0.0 0.00 0.00 0.00
20260501222957 65 298 4.0 7.0 0.00 0.00 0.00 64 1016.4
20260501222945 0 0.0 0.0 0.00 0.00 0.00
20260501222457 65 299 4.0 8.0 0.00 0.00 0.00 64 1016.4
20260501221957 65 310 4.0 7.0 0.00 0.00 0.00 63 1016.4
20260501221946 0 0.0 0.0 0.00 0.00 0.00
20260501221457 65 305 4.0 9.0 0.00 0.00 0.00 64 1016.4
20260501221447 0 0.0 0.0 0.00 0.00 0.00
20260501220957 65 309 5.0 8.0 0.00 0.00 0.00 64 1016.4
20260501220946 0 0.0 0.0 0.00 0.00 0.00
20260501220457 65 301 6.0 9.0 0.00 0.00 0.00 63 1016.5
20260501215957 65 299 4.0 8.0 0.00 0.00 0.00 63 1016.5
20260501215946 0 0.0 0.0 0.00 0.00 0.00
20260501215457 65 306 5.0 7.0 0.00 0.00 0.00 63 1016.5
20260501215443 0 0.0 0.0 0.00 0.00 0.00
20260501214957 64 301 5.0 7.0 0.00 0.00 0.00 64 1016.5
20260501214943 0 0.0 0.0 0.00 0.00 0.00
20260501214457 64 307 4.0 8.0 0.00 0.00 0.00 64 1016.5
20260501213958 64 301 5.0 7.0 0.00 0.00 0.00 64 1016.5
20260501213944 0 0.0 0.0 0.00 0.00 0.00
20260501213458 64 297 4.0 6.0 0.00 0.00 0.00 65 1016.5
20260501213443 0 0.0 0.0 0.00 0.00 0.00
20260501212957 64 307 4.0 7.0 0.00 0.00 0.00 65 1016.6
20260501212944 0 0.0 0.0 0.00 0.00 0.00
20260501212458 64 310 6.0 9.0 0.00 0.00 0.00 65 1016.7
20260501211958 63 305 4.0 7.0 0.00 0.00 0.00 66 1016.7
20260501211943 0 0.0 0.0 0.00 0.00 0.00
20260501211457 63 308 5.0 7.0 0.00 0.00 0.00 67 1016.8
20260501211444 0 0.0 0.0 0.00 0.00 0.00
20260501210957 62 313 4.0 8.0 0.00 0.00 0.00 68 1016.9
20260501210458 61 300 6.0 8.0 0.00 0.00 0.00 70 1016.8
20260501205957 62 311 6.0 8.0 0.00 0.00 0.00 70 1016.9
20260501205944 0 0.0 0.0 0.00 0.00 0.00
20260501205457 62 296 6.0 9.0 0.00 0.00 0.00 71 1016.9
20260501205444 0 0.0 0.0 0.00 0.00 0.00
20260501204958 61 285 3.0 7.0 0.00 0.00 0.00 71 1016.9
20260501204941 0 0.0 0.0 0.00 0.00 0.00
20260501204457 61 311 5.0 10.0 0.00 0.00 0.00 72 1016.9
20260501204441 0 0.0 0.0 0.00 0.00 0.00
20260501203957 62 295 5.0 7.0 0.00 0.00 0.00 71 1017.0
20260501203942 0 0.0 0.0 0.00 0.00 0.00
20260501203457 62 301 5.0 8.0 0.00 0.00 0.00 71 1017.0
20260501203441 0 0.0 0.0 0.00 0.00 0.00
20260501202958 62 310 4.0 6.0 0.00 0.00 0.00 71 1017.0
20260501202942 0 0.0 0.0 0.00 0.00 0.00
20260501202457 62 287 3.0 5.0 0.00 0.00 0.00 72 1017.0
20260501202442 0 0.0 0.0 0.00 0.00 0.00
20260501201957 61 297 3.0 6.0 0.00 0.00 0.00 75 1017.0
20260501201942 0 0.0 0.0 0.00 0.00 0.00
20260501201458 61 307 4.0 6.0 0.00 0.00 0.00 74 1017.0
20260501201442 0 0.0 0.0 0.00 0.00 0.00
20260501200957 60 316 4.0 9.0 0.00 0.00 0.00 75 1017.1
20260501200942 0 0.0 0.0 0.00 0.00 0.00
20260501200457 60 324 3.0 6.0 0.00 0.00 0.00 76 1017.1
20260501200442 0 0.0 0.0 0.00 0.00 0.00
20260501195957 60 319 4.0 6.0 0.00 0.00 0.00 76 1017.1
20260501195942 0 0.0 0.0 0.00 0.00 0.00
20260501195458 60 338 4.0 7.0 0.00 0.00 0.00 77 1017.2
20260501195439 0 0.0 0.0 0.00 0.00 0.00
20260501194958 60 333 4.0 6.0 0.00 0.00 0.00 77 1017.2
20260501194936 0 0.0 0.0 0.00 0.00 0.00
20260501194457 60 322 5.0 7.0 0.00 0.00 0.00 77 1017.2
20260501194433 0 0.0 0.0 0.00 0.00 0.00
20260501193957 60 319 3.0 5.0 0.00 0.00 0.00 78 1017.2
20260501193933 0 0.0 0.0 0.00 0.00 0.00
20260501193458 59 310 4.0 5.0 0.00 0.00 0.00 79 1017.2
20260501193433 0 0.0 0.0 0.00 0.00 0.00
20260501192957 60 315 3.0 4.0 0.00 0.00 0.00 79 1017.2
20260501192939 0 0.0 0.0 0.00 0.00 0.00
20260501192457 60 310 4.0 6.0 0.00 0.00 0.00 78 1017.2
20260501192433 0 0.0 0.0 0.00 0.00 0.00
20260501191958 59 327 3.0 5.0 0.00 0.00 0.00 80 1017.3
20260501191934 0 0.0 0.0 0.00 0.00 0.00
20260501191457 59 317 3.0 5.0 0.00 0.00 0.00 81 1017.4
20260501190957 58 311 4.0 7.0 0.00 0.00 0.00 81 1017.3
20260501190934 0 0.0 0.0 0.00 0.00 0.00
20260501190458 58 302 4.0 7.0 0.00 0.00 0.00 81 1017.4
20260501190434 0 0.0 0.0 0.00 0.00 0.00
20260501185958 58 323 2.0 6.0 0.00 0.00 0.00 82 1017.3
20260501185934 0 0.0 0.0 0.00 0.00 0.00
20260501185458 59 305 4.0 7.0 0.00 0.00 0.00 81 1017.4
20260501184957 59 296 3.0 4.0 0.00 0.00 0.00 81 1017.5
20260501184931 0 0.0 0.0 0.00 0.00 0.00
20260501184457 59 307 4.0 6.0 0.00 0.00 0.00 80 1017.5
20260501183957 59 304 4.0 6.0 0.00 0.00 0.00 81 1017.5
20260501183932 0 0.0 0.0 0.00 0.00 0.00
20260501183458 58 301 2.0 4.0 0.00 0.00 0.00 82 1017.5
20260501183432 0 0.0 0.0 0.00 0.00 0.00
20260501182957 58 308 4.0 6.0 0.00 0.00 0.00 82 1017.5
20260501182931 0 0.0 0.0 0.00 0.00 0.00
20260501182458 58 313 3.0 5.0 0.00 0.00 0.00 82 1017.5
20260501182432 0 0.0 0.0 0.00 0.00 0.00
20260501181957 58 294 2.0 4.0 0.00 0.00 0.00 83 1017.6
20260501181932 0 0.0 0.0 0.00 0.00 0.00
20260501181457 57 306 3.0 5.0 0.00 0.00 0.00 84 1017.6
20260501180957 57 322 3.0 6.0 0.00 0.00 0.00 84 1017.5
20260501180500 57 323 4.0 5.0 0.00 0.00 0.00 83 1017.6
20260501180432 0 0.0 0.0 0.00 0.00 0.00
20260501175958 57 325 4.0 6.0 0.00 0.00 0.00 83 1017.6
20260501175931 0 0.0 0.0 0.00 0.00 0.00
20260501175457 57 308 3.0 5.0 0.00 0.00 0.00 84 1017.6
20260501175432 0 0.0 0.0 0.00 0.00 0.00
20260501174957 57 323 3.0 5.0 0.00 0.00 0.00 83 1017.6
20260501174929 0 0.0 0.0 0.00 0.00 0.00
20260501174504 57 310 1.0 3.0 0.00 0.00 0.00 84 1017.6
20260501174430 0 0.0 0.0 0.00 0.00 0.00
20260501173958 57 313 2.0 3.0 0.00 0.00 0.00 83 1017.6
20260501173929 0 0.0 0.0 0.00 0.00 0.00
20260501173457 57 319 3.0 4.0 0.00 0.00 0.00 83 1017.6
20260501173430 0 0.0 0.0 0.00 0.00 0.00
20260501172957 57 318 3.0 4.0 0.00 0.00 0.00 83 1017.6
20260501172457 57 321 2.0 6.0 0.00 0.00 0.00 82 1017.6
20260501172429 0 0.0 0.0 0.00 0.00 0.00
20260501171957 57 332 2.0 3.0 0.00 0.00 0.00 82 1017.6
20260501171929 0 0.0 0.0 0.00 0.00 0.00
20260501171458 56 303 3.0 6.0 0.00 0.00 0.00 82 1017.5
20260501171430 0 0.0 0.0 0.00 0.00 0.00
20260501170958 56 322 3.0 5.0 0.00 0.00 0.00 83 1017.5
20260501170930 0 0.0 0.0 0.00 0.00 0.00
20260501170457 56 324 2.0 4.0 0.00 0.00 0.00 83 1017.5
20260501170430 0 0.0 0.0 0.00 0.00 0.00
20260501165958 56 317 3.0 5.0 0.00 0.00 0.00 82 1017.5
20260501165930 0 0.0 0.0 0.00 0.00 0.00
20260501165457 56 326 3.0 4.0 0.00 0.00 0.00 80 1017.5
20260501165430 0 0.0 0.0 0.00 0.00 0.00
20260501164958 56 333 3.0 6.0 0.00 0.00 0.00 79 1017.5
20260501164937 0 0.0 0.0 0.00 0.00 0.00
20260501164458 56 327 2.0 5.0 0.00 0.00 0.00 79 1017.5
20260501164425 0 0.0 0.0 0.00 0.00 0.00
20260501163957 56 329 3.0 4.0 0.00 0.00 0.00 78 1017.5
20260501163924 0 0.0 0.0 0.00 0.00 0.00
20260501163502 56 322 2.0 3.0 0.00 0.00 0.00 78 1017.5
20260501162958 56 327 2.0 3.0 0.00 0.00 0.00 78 1017.6
20260501162925 0 0.0 0.0 0.00 0.00 0.00
20260501162457 56 330 3.0 4.0 0.00 0.00 0.00 77 1017.6
20260501161957 56 300 1.0 2.0 0.00 0.00 0.00 76 1017.7
20260501161924 0 0.0 0.0 0.00 0.00 0.00
20260501161458 55 328 2.0 3.0 0.00 0.00 0.00 77 1017.7
20260501161425 0 0.0 0.0 0.00 0.00 0.00
20260501160958 55 327 3.0 4.0 0.00 0.00 0.00 77 1017.7
20260501160925 0 0.0 0.0 0.00 0.00 0.00
20260501160458 55 326 2.0 4.0 0.00 0.00 0.00 77 1017.8
20260501160425 0 0.0 0.0 0.00 0.00 0.00
20260501155958 56 325 2.0 3.0 0.00 0.00 0.00 77 1017.8
20260501155457 57 318 2.0 3.0 0.00 0.00 0.00 76 1017.7
20260501155425 0 0.0 0.0 0.00 0.00 0.00
20260501154958 58 313 1.0 2.0 0.00 0.00 0.00 75 1017.7
20260501154922 0 0.0 0.0 0.00 0.00 0.00
20260501154458 58 186 0.0 1.0 0.00 0.00 0.00 74 1017.7
20260501153957 58 308 2.0 3.0 0.00 0.00 0.00 70 1017.6
20260501153920 0 0.0 0.0 0.00 0.00 0.00
20260501153458 57 287 0.0 1.0 0.00 0.00 0.00 71 1017.6
20260501152957 57 0 0.0 0.0 0.00 0.00 0.00 71 1017.6
20260501152919 0 0.0 0.0 0.00 0.00 0.00